| time (UTC) | temp F | wind direction | speed MPH | gust MPH | rain 1hr in | rain 24hr in | rain mn in | humidity % | barometer mb |
| 20260506192916 | 48 | 40 | 1.0 | 4.0 | 0.00 | 0.57 | 0.54 | 90 | 1009.2 |
| 20260506192624 | 48 | 39 | 0.0 | 2.0 | 0.00 | 0.55 | 0.54 | 90 | 1009.3 |
| 20260506192416 | 48 | 40 | 1.0 | 2.0 | 0.00 | 0.57 | 0.54 | 90 | 1009.3 |
| 20260506191916 | 48 | 40 | 1.0 | 3.0 | 0.00 | 0.57 | 0.54 | 90 | 1009.1 |
| 20260506191625 | 48 | 39 | 1.0 | 3.0 | 0.00 | 0.55 | 0.54 | 90 | 1009.0 |
| 20260506190916 | 48 | 45 | 1.0 | 4.0 | 0.00 | 0.57 | 0.54 | 90 | 1009.0 |
| 20260506190624 | 48 | 39 | 1.0 | 4.0 | 0.00 | 0.55 | 0.54 | 90 | 1009.0 |
| 20260506185916 | 48 | 49 | 1.0 | 3.0 | 0.00 | 0.57 | 0.54 | 90 | 1008.9 |
| 20260506185624 | 48 | 49 | 0.0 | 1.0 | 0.00 | 0.57 | 0.54 | 90 | 1008.8 |
| 20260506185417 | 48 | 0 | 0.0 | 3.0 | 0.00 | 0.57 | 0.54 | 90 | 1008.8 |
| 20260506184916 | 48 | 50 | 1.0 | 3.0 | 0.00 | 0.57 | 0.54 | 90 | 1008.7 |
| 20260506184624 | 48 | 49 | 1.0 | 3.0 | 0.00 | 0.57 | 0.54 | 90 | 1008.6 |
| 20260506184416 | 48 | 50 | 1.0 | 3.0 | 0.00 | 0.57 | 0.54 | 90 | 1008.6 |
| 20260506183917 | 48 | 49 | 1.0 | 3.0 | 0.00 | 0.57 | 0.54 | 90 | 1008.6 |
| 20260506183624 | 48 | 49 | 1.0 | 2.0 | 0.00 | 0.57 | 0.54 | 90 | 1008.5 |
| 20260506183417 | 48 | 19 | 1.0 | 2.0 | 0.00 | 0.57 | 0.54 | 90 | 1008.5 |
| 20260506182916 | 48 | 355 | 1.0 | 3.0 | 0.00 | 0.57 | 0.54 | 90 | 1008.5 |
| 20260506182625 | 49 | 355 | 1.0 | 3.0 | 0.00 | 0.57 | 0.54 | 90 | 1008.4 |
| 20260506181916 | 49 | 354 | 1.0 | 3.0 | 0.00 | 0.57 | 0.54 | 90 | 1008.4 |
| 20260506181624 | 49 | 355 | 1.0 | 3.0 | 0.00 | 0.57 | 0.54 | 90 | 1008.3 |
| 20260506181416 | 49 | 355 | 1.0 | 3.0 | 0.00 | 0.57 | 0.54 | 90 | 1008.4 |
| 20260506180626 | 49 | 355 | 2.0 | 5.0 | 0.00 | 0.57 | 0.54 | 90 | 1008.2 |
| 20260506180416 | 49 | 354 | 2.0 | 5.0 | 0.00 | 0.57 | 0.54 | 90 | 1008.2 |
| 20260506175916 | 49 | 354 | 2.0 | 5.0 | 0.00 | 0.57 | 0.54 | 89 | 1008.1 |
| 20260506175624 | 49 | 355 | 2.0 | 5.0 | 0.00 | 0.57 | 0.54 | 89 | 1008.1 |
| 20260506175416 | 49 | 12 | 2.0 | 6.0 | 0.00 | 0.57 | 0.54 | 89 | 1008.1 |
| 20260506174916 | 49 | 5 | 2.0 | 6.0 | 0.00 | 0.57 | 0.54 | 89 | 1008.0 |
| 20260506174624 | 49 | 346 | 2.0 | 5.0 | 0.00 | 0.57 | 0.54 | 89 | 1008.1 |
| 20260506174416 | 49 | 344 | 2.0 | 5.0 | 0.00 | 0.57 | 0.54 | 89 | 1008.0 |
| 20260506173916 | 49 | 341 | 2.0 | 5.0 | 0.00 | 0.57 | 0.54 | 89 | 1007.9 |
| 20260506173624 | 49 | 340 | 1.0 | 5.0 | 0.00 | 0.57 | 0.54 | 89 | 1007.9 |
| 20260506173416 | 49 | 338 | 1.0 | 5.0 | 0.00 | 0.57 | 0.54 | 89 | 1007.8 |
| 20260506172916 | 49 | 336 | 2.0 | 5.0 | 0.00 | 0.57 | 0.54 | 89 | 1007.8 |
| 20260506172624 | 49 | 338 | 3.0 | 8.0 | 0.00 | 0.57 | 0.54 | 89 | 1007.8 |
| 20260506171917 | 49 | 347 | 2.0 | 6.0 | 0.00 | 0.57 | 0.54 | 89 | 1007.7 |
| 20260506171624 | 49 | 1 | 2.0 | 6.0 | 0.00 | 0.57 | 0.54 | 88 | 1007.7 |
| 20260506170916 | 49 | 358 | 2.0 | 5.0 | 0.00 | 0.57 | 0.54 | 88 | 1007.7 |
| 20260506170624 | 49 | 357 | 2.0 | 4.0 | 0.00 | 0.57 | 0.54 | 88 | 1007.7 |
| 20260506170416 | 49 | 357 | 2.0 | 4.0 | 0.00 | 0.57 | 0.54 | 88 | 1007.7 |
| 20260506165916 | 49 | 356 | 2.0 | 4.0 | 0.00 | 0.57 | 0.54 | 88 | 1007.7 |
| 20260506165624 | 49 | 357 | 2.0 | 4.0 | 0.00 | 0.57 | 0.54 | 88 | 1007.7 |
| 20260506164916 | 49 | 355 | 2.0 | 4.0 | 0.00 | 0.57 | 0.54 | 88 | 1007.6 |
| 20260506164624 | 49 | 356 | 2.0 | 4.0 | 0.00 | 0.57 | 0.54 | 88 | 1007.6 |
| 20260506164416 | 49 | 353 | 2.0 | 5.0 | 0.00 | 0.57 | 0.54 | 88 | 1007.6 |
| 20260506163916 | 49 | 352 | 2.0 | 5.0 | 0.00 | 0.57 | 0.54 | 88 | 1007.5 |
| 20260506163624 | 49 | 352 | 2.0 | 5.0 | 0.00 | 0.57 | 0.54 | 88 | 1007.6 |
| 20260506163416 | 49 | 353 | 2.0 | 8.0 | 0.00 | 0.57 | 0.54 | 88 | 1007.5 |
| 20260506162916 | 49 | 356 | 1.0 | 8.0 | 0.00 | 0.57 | 0.54 | 88 | 1007.5 |
| 20260506162624 | 49 | 358 | 1.0 | 2.0 | 0.00 | 0.57 | 0.54 | 88 | 1007.6 |
| 20260506162416 | 49 | 357 | 1.0 | 3.0 | 0.00 | 0.57 | 0.54 | 88 | 1007.5 |
| 20260506161916 | 49 | 357 | 1.0 | 3.0 | 0.00 | 0.57 | 0.54 | 88 | 1007.6 |
| 20260506161624 | 49 | 357 | 1.0 | 3.0 | 0.00 | 0.57 | 0.54 | 89 | 1007.6 |
| 20260506161416 | 49 | 357 | 2.0 | 5.0 | 0.00 | 0.57 | 0.54 | 89 | 1007.6 |
| 20260506160916 | 49 | 355 | 2.0 | 5.0 | 0.00 | 0.57 | 0.54 | 89 | 1007.5 |
| 20260506160624 | 49 | 353 | 2.0 | 5.0 | 0.00 | 0.57 | 0.54 | 89 | 1007.6 |
| 20260506160416 | 49 | 350 | 2.0 | 8.0 | 0.00 | 0.57 | 0.54 | 89 | 1007.6 |
| 20260506155916 | 49 | 3 | 2.0 | 8.0 | 0.00 | 0.57 | 0.54 | 89 | 1007.5 |
| 20260506155624 | 49 | 337 | 2.0 | 8.0 | 0.00 | 0.57 | 0.54 | 89 | 1007.5 |
| 20260506154916 | 49 | 31 | 2.0 | 6.0 | 0.00 | 0.57 | 0.54 | 88 | 1007.4 |
| 20260506154624 | 49 | 22 | 2.0 | 6.0 | 0.00 | 0.57 | 0.54 | 89 | 1007.5 |
| 20260506154417 | 49 | 33 | 2.0 | 6.0 | 0.00 | 0.57 | 0.54 | 89 | 1007.5 |
| 20260506153624 | 49 | 43 | 3.0 | 7.0 | 0.00 | 0.57 | 0.54 | 89 | 1007.5 |
| 20260506152916 | 49 | 348 | 2.0 | 6.0 | 0.00 | 0.57 | 0.54 | 89 | 1007.5 |
| 20260506152624 | 49 | 350 | 2.0 | 6.0 | 0.00 | 0.57 | 0.54 | 89 | 1007.5 |
| 20260506152416 | 49 | 6 | 2.0 | 6.0 | 0.00 | 0.57 | 0.54 | 89 | 1007.4 |
| 20260506151917 | 49 | 14 | 2.0 | 6.0 | 0.00 | 0.57 | 0.54 | 89 | 1007.4 |
| 20260506151624 | 49 | 17 | 1.0 | 6.0 | 0.00 | 0.57 | 0.54 | 89 | 1007.4 |
| 20260506151416 | 49 | 22 | 1.0 | 6.0 | 0.00 | 0.57 | 0.54 | 89 | 1007.4 |
| 20260506150917 | 49 | 28 | 2.0 | 7.0 | 0.00 | 0.57 | 0.54 | 89 | 1007.3 |
| 20260506150624 | 49 | 26 | 2.0 | 7.0 | 0.00 | 0.57 | 0.54 | 89 | 1007.4 |
| 20260506150416 | 49 | 22 | 2.0 | 7.0 | 0.00 | 0.57 | 0.54 | 89 | 1007.3 |
| 20260506145917 | 49 | 15 | 2.0 | 6.0 | 0.00 | 0.57 | 0.54 | 89 | 1007.4 |
| 20260506145624 | 49 | 12 | 1.0 | 4.0 | 0.00 | 0.57 | 0.54 | 89 | 1007.4 |
| 20260506144916 | 49 | 7 | 1.0 | 3.0 | 0.00 | 0.57 | 0.54 | 89 | 1007.3 |
| 20260506144624 | 49 | 12 | 1.0 | 3.0 | 0.00 | 0.57 | 0.54 | 88 | 1007.4 |
| 20260506144417 | 49 | 356 | 2.0 | 5.0 | 0.00 | 0.57 | 0.54 | 88 | 1007.4 |
| 20260506143917 | 50 | 356 | 2.0 | 5.0 | 0.00 | 0.57 | 0.54 | 88 | 1007.4 |
| 20260506143624 | 50 | 358 | 2.0 | 5.0 | 0.00 | 0.57 | 0.54 | 89 | 1007.3 |
| 20260506143416 | 50 | 340 | 2.0 | 8.0 | 0.00 | 0.57 | 0.54 | 89 | 1007.3 |
| 20260506142916 | 50 | 337 | 3.0 | 8.0 | 0.00 | 0.57 | 0.54 | 89 | 1007.3 |
| 20260506142624 | 50 | 344 | 2.0 | 6.0 | 0.01 | 0.57 | 0.54 | 89 | 1007.2 |
| 20260506141917 | 50 | 343 | 2.0 | 6.0 | 0.01 | 0.57 | 0.54 | 89 | 1007.1 |
| 20260506141625 | 50 | 330 | 2.0 | 4.0 | 0.01 | 0.57 | 0.54 | 89 | 1007.2 |
| 20260506141416 | 50 | 329 | 2.0 | 4.0 | 0.01 | 0.57 | 0.54 | 89 | 1007.1 |
| 20260506140917 | 50 | 352 | 2.0 | 8.0 | 0.01 | 0.57 | 0.54 | 89 | 1007.1 |
| 20260506140624 | 50 | 330 | 3.0 | 7.0 | 0.02 | 0.57 | 0.54 | 89 | 1007.1 |
| 20260506140416 | 50 | 27 | 3.0 | 8.0 | 0.02 | 0.57 | 0.54 | 89 | 1007.1 |
| 20260506135917 | 50 | 26 | 3.0 | 9.0 | 0.02 | 0.57 | 0.54 | 89 | 1007.0 |
| 20260506135624 | 50 | 35 | 2.0 | 8.0 | 0.02 | 0.57 | 0.54 | 90 | 1007.0 |
| 20260506135417 | 50 | 356 | 3.0 | 9.0 | 0.02 | 0.57 | 0.54 | 90 | 1007.0 |
| 20260506134917 | 50 | 351 | 3.0 | 9.0 | 0.02 | 0.57 | 0.54 | 90 | 1007.0 |
| 20260506134624 | 50 | 280 | 3.0 | 8.0 | 0.02 | 0.57 | 0.54 | 91 | 1007.0 |
| 20260506134416 | 50 | 355 | 3.0 | 8.0 | 0.02 | 0.57 | 0.54 | 91 | 1007.0 |
| 20260506133917 | 49 | 3 | 3.0 | 6.0 | 0.02 | 0.57 | 0.54 | 91 | 1007.0 |
| 20260506133626 | 49 | 2 | 3.0 | 6.0 | 0.02 | 0.57 | 0.54 | 90 | 1007.0 |
| 20260506133417 | 49 | 4 | 3.0 | 8.0 | 0.02 | 0.57 | 0.54 | 90 | 1007.0 |
| 20260506132917 | 49 | 9 | 2.0 | 8.0 | 0.02 | 0.57 | 0.54 | 89 | 1007.1 |
| 20260506132624 | 49 | 355 | 3.0 | 7.0 | 0.02 | 0.56 | 0.53 | 89 | 1007.0 |
| 20260506132417 | 49 | 9 | 2.0 | 7.0 | 0.02 | 0.56 | 0.53 | 89 | 1007.0 |
| 20260506131916 | 49 | 2 | 2.0 | 6.0 | 0.02 | 0.56 | 0.53 | 89 | 1007.0 |
| 20260506131625 | 49 | 2 | 2.0 | 5.0 | 0.02 | 0.56 | 0.53 | 89 | 1007.0 |
| 20260506131417 | 49 | 4 | 3.0 | 9.0 | 0.02 | 0.56 | 0.53 | 89 | 1007.0 |
| 20260506130625 | 49 | 17 | 2.0 | 5.0 | 0.02 | 0.55 | 0.52 | 89 | 1006.9 |
| 20260506125917 | 49 | 11 | 2.0 | 6.0 | 0.02 | 0.55 | 0.52 | 89 | 1006.9 |
| 20260506125624 | 49 | 12 | 3.0 | 6.0 | 0.01 | 0.54 | 0.51 | 89 | 1006.9 |
| 20260506124624 | 49 | 12 | 2.0 | 4.0 | 0.02 | 0.54 | 0.51 | 89 | 1006.8 |
| 20260506123624 | 49 | 3 | 2.0 | 4.0 | 0.02 | 0.54 | 0.51 | 89 | 1006.7 |
| 20260506123417 | 49 | 1 | 2.0 | 6.0 | 0.02 | 0.54 | 0.51 | 89 | 1006.7 |
| 20260506122624 | 49 | 36 | 2.0 | 6.0 | 0.02 | 0.54 | 0.51 | 89 | 1006.6 |
| 20260506122416 | 49 | 50 | 3.0 | 7.0 | 0.02 | 0.54 | 0.51 | 89 | 1006.6 |
| 20260506121917 | 49 | 43 | 3.0 | 7.0 | 0.02 | 0.54 | 0.51 | 89 | 1006.6 |
| 20260506121624 | 49 | 31 | 2.0 | 5.0 | 0.01 | 0.54 | 0.50 | 90 | 1006.5 |
| 20260506120917 | 49 | 6 | 2.0 | 8.0 | 0.01 | 0.54 | 0.50 | 89 | 1006.5 |
| 20260506120625 | 49 | 3 | 2.0 | 4.0 | 0.01 | 0.54 | 0.50 | 89 | 1006.5 |
| 20260506120417 | 49 | 14 | 2.0 | 6.0 | 0.01 | 0.54 | 0.50 | 89 | 1006.5 |
| 20260506115917 | 49 | 32 | 2.0 | 6.0 | 0.02 | 0.54 | 0.50 | 89 | 1006.5 |
| 20260506115624 | 49 | 37 | 2.0 | 5.0 | 0.02 | 0.54 | 0.50 | 89 | 1006.4 |
| 20260506115417 | 49 | 9 | 2.0 | 5.0 | 0.02 | 0.54 | 0.50 | 89 | 1006.4 |
| 20260506114917 | 49 | 338 | 2.0 | 9.0 | 0.01 | 0.53 | 0.50 | 90 | 1006.4 |
| 20260506114624 | 49 | 322 | 2.0 | 9.0 | 0.01 | 0.53 | 0.50 | 89 | 1006.4 |
| 20260506114417 | 49 | 354 | 1.0 | 9.0 | 0.01 | 0.53 | 0.50 | 89 | 1006.4 |
| 20260506113917 | 49 | 11 | 2.0 | 9.0 | 0.01 | 0.53 | 0.50 | 89 | 1006.4 |
| 20260506113624 | 49 | 4 | 3.0 | 9.0 | 0.02 | 0.53 | 0.50 | 89 | 1006.3 |
| 20260506113417 | 49 | 9 | 3.0 | 9.0 | 0.02 | 0.53 | 0.50 | 89 | 1006.3 |
| 20260506112917 | 49 | 15 | 2.0 | 8.0 | 0.02 | 0.53 | 0.50 | 89 | 1006.3 |
| 20260506112417 | 49 | 39 | 3.0 | 8.0 | 0.02 | 0.53 | 0.50 | 89 | 1006.4 |
| 20260506111917 | 49 | 42 | 2.0 | 6.0 | 0.02 | 0.53 | 0.50 | 89 | 1006.4 |
| 20260506111624 | 49 | 50 | 2.0 | 6.0 | 0.02 | 0.53 | 0.50 | 90 | 1006.4 |
| 20260506111417 | 49 | 29 | 2.0 | 6.0 | 0.02 | 0.53 | 0.50 | 90 | 1006.4 |
| 20260506110917 | 49 | 18 | 4.0 | 12.0 | 0.02 | 0.53 | 0.50 | 89 | 1006.4 |
| 20260506110624 | 49 | 44 | 4.0 | 12.0 | 0.03 | 0.53 | 0.50 | 89 | 1006.4 |
| 20260506110416 | 49 | 7 | 4.0 | 12.0 | 0.03 | 0.53 | 0.50 | 89 | 1006.4 |
| 20260506105917 | 49 | 12 | 4.0 | 16.0 | 0.02 | 0.52 | 0.49 | 89 | 1006.4 |
| 20260506105624 | 49 | 344 | 4.0 | 16.0 | 0.02 | 0.52 | 0.49 | 89 | 1006.3 |
| 20260506105417 | 49 | 23 | 4.0 | 16.0 | 0.02 | 0.52 | 0.49 | 89 | 1006.3 |
| 20260506104916 | 49 | 31 | 3.0 | 8.0 | 0.03 | 0.52 | 0.49 | 89 | 1006.4 |
| 20260506104624 | 49 | 12 | 4.0 | 7.0 | 0.03 | 0.52 | 0.49 | 89 | 1006.3 |
| 20260506103917 | 49 | 27 | 2.0 | 7.0 | 0.03 | 0.52 | 0.49 | 90 | 1006.3 |
| 20260506103624 | 49 | 26 | 2.0 | 7.0 | 0.03 | 0.51 | 0.48 | 89 | 1006.3 |
| 20260506103417 | 49 | 15 | 3.0 | 9.0 | 0.03 | 0.52 | 0.48 | 89 | 1006.3 |
| 20260506102917 | 49 | 10 | 4.0 | 9.0 | 0.03 | 0.52 | 0.48 | 89 | 1006.4 |
| 20260506102417 | 48 | 13 | 3.0 | 10.0 | 0.03 | 0.52 | 0.48 | 89 | 1006.2 |
| 20260506101917 | 49 | 11 | 3.0 | 10.0 | 0.03 | 0.51 | 0.47 | 89 | 1006.2 |
| 20260506101624 | 49 | 323 | 3.0 | 8.0 | 0.04 | 0.50 | 0.47 | 89 | 1006.0 |
| 20260506101417 | 49 | 358 | 4.0 | 8.0 | 0.03 | 0.51 | 0.47 | 88 | 1006.1 |
| 20260506100917 | 49 | 353 | 3.0 | 11.0 | 0.04 | 0.51 | 0.47 | 89 | 1005.9 |
| 20260506100625 | 49 | 31 | 3.0 | 11.0 | 0.03 | 0.50 | 0.46 | 89 | 1006.0 |
| 20260506100418 | 49 | 3 | 4.0 | 11.0 | 0.03 | 0.51 | 0.46 | 89 | 1005.9 |
| 20260506095917 | 50 | 3 | 5.0 | 12.0 | 0.03 | 0.51 | 0.46 | 90 | 1005.9 |
| 20260506095417 | 49 | 6 | 4.0 | 12.0 | 0.03 | 0.52 | 0.46 | 90 | 1005.7 |
| 20260506094917 | 49 | 19 | 3.0 | 9.0 | 0.02 | 0.51 | 0.46 | 90 | 1005.7 |
| 20260506094624 | 49 | 1 | 3.0 | 8.0 | 0.03 | 0.51 | 0.46 | 90 | 1005.7 |
| 20260506094417 | 49 | 28 | 3.0 | 8.0 | 0.03 | 0.51 | 0.46 | 90 | 1005.7 |
| 20260506093917 | 49 | 18 | 4.0 | 8.0 | 0.03 | 0.51 | 0.46 | 91 | 1005.7 |
| 20260506093624 | 49 | 40 | 4.0 | 8.0 | 0.02 | 0.50 | 0.45 | 90 | 1005.7 |
| 20260506093417 | 49 | 26 | 3.0 | 8.0 | 0.02 | 0.50 | 0.45 | 90 | 1005.7 |
| 20260506092917 | 49 | 59 | 2.0 | 8.0 | 0.02 | 0.50 | 0.45 | 90 | 1005.6 |
| 20260506092624 | 49 | 68 | 2.0 | 4.0 | 0.02 | 0.50 | 0.45 | 90 | 1005.6 |
| 20260506092417 | 49 | 64 | 3.0 | 7.0 | 0.02 | 0.50 | 0.45 | 90 | 1005.5 |
| 20260506091917 | 49 | 40 | 4.0 | 9.0 | 0.02 | 0.50 | 0.44 | 90 | 1005.3 |
| 20260506091624 | 49 | 352 | 3.0 | 9.0 | 0.02 | 0.50 | 0.44 | 90 | 1005.3 |
| 20260506091416 | 49 | 12 | 3.0 | 9.0 | 0.02 | 0.50 | 0.44 | 90 | 1005.3 |
| 20260506090917 | 49 | 22 | 4.0 | 10.0 | 0.02 | 0.49 | 0.43 | 90 | 1005.3 |
| 20260506090624 | 50 | 35 | 4.0 | 10.0 | 0.02 | 0.49 | 0.43 | 90 | 1005.4 |
| 20260506090417 | 50 | 17 | 3.0 | 10.0 | 0.02 | 0.49 | 0.43 | 90 | 1005.3 |
| 20260506085917 | 50 | 350 | 2.0 | 6.0 | 0.02 | 0.49 | 0.43 | 91 | 1005.3 |
| 20260506085624 | 50 | 352 | 2.0 | 6.0 | 0.02 | 0.49 | 0.43 | 91 | 1005.3 |
| 20260506085416 | 50 | 353 | 3.0 | 9.0 | 0.02 | 0.49 | 0.43 | 91 | 1005.3 |
| 20260506084917 | 50 | 356 | 3.0 | 9.0 | 0.02 | 0.48 | 0.43 | 91 | 1005.2 |
| 20260506084625 | 50 | 353 | 2.0 | 6.0 | 0.02 | 0.48 | 0.43 | 91 | 1005.3 |
| 20260506084417 | 50 | 350 | 3.0 | 8.0 | 0.02 | 0.48 | 0.43 | 91 | 1005.2 |
| 20260506083917 | 50 | 355 | 3.0 | 8.0 | 0.02 | 0.48 | 0.43 | 91 | 1005.2 |
| 20260506083624 | 50 | 2 | 2.0 | 5.0 | 0.02 | 0.48 | 0.43 | 92 | 1005.2 |
| 20260506082916 | 50 | 353 | 3.0 | 8.0 | 0.02 | 0.48 | 0.43 | 92 | 1005.1 |
| 20260506082624 | 50 | 344 | 4.0 | 8.0 | 0.02 | 0.48 | 0.43 | 92 | 1005.1 |
| 20260506081917 | 49 | 4 | 2.0 | 9.0 | 0.02 | 0.47 | 0.42 | 91 | 1005.0 |
| 20260506081624 | 49 | 355 | 3.0 | 9.0 | 0.02 | 0.47 | 0.42 | 91 | 1005.1 |
| 20260506081417 | 49 | 19 | 3.0 | 9.0 | 0.02 | 0.47 | 0.42 | 91 | 1005.1 |
| 20260506080916 | 49 | 18 | 3.0 | 6.0 | 0.02 | 0.47 | 0.42 | 92 | 1005.1 |
| 20260506080625 | 49 | 12 | 3.0 | 6.0 | 0.02 | 0.47 | 0.42 | 92 | 1005.1 |
| 20260506080417 | 49 | 6 | 3.0 | 8.0 | 0.02 | 0.47 | 0.42 | 92 | 1005.0 |
| 20260506073417 | 49 | 359 | 2.0 | 6.0 | 0.05 | 0.47 | 0.41 | 92 | 1004.9 |
| 20260506072916 | 49 | 358 | 3.0 | 5.0 | 0.06 | 0.47 | 0.41 | 92 | 1005.0 |
| 20260506072624 | 49 | 355 | 2.0 | 5.0 | 0.07 | 0.46 | 0.41 | 92 | 1005.0 |
| 20260506072417 | 49 | 16 | 2.0 | 8.0 | 0.07 | 0.47 | 0.41 | 92 | 1005.0 |
| 20260506071916 | 49 | 19 | 2.0 | 8.0 | 0.06 | 0.46 | 0.40 | 92 | 1005.0 |
| 20260506071625 | 49 | 53 | 2.0 | 6.0 | 0.07 | 0.46 | 0.40 | 92 | 1004.9 |
| 20260506071417 | 49 | 353 | 2.0 | 6.0 | 0.07 | 0.46 | 0.40 | 92 | 1004.9 |
| 20260506070917 | 49 | 351 | 2.0 | 5.0 | 0.08 | 0.46 | 0.40 | 92 | 1005.1 |
| 20260506070625 | 49 | 355 | 2.0 | 5.0 | 0.07 | 0.45 | 0.39 | 92 | 1005.1 |
| 20260506070416 | 49 | 355 | 2.0 | 5.0 | 0.07 | 0.46 | 0.39 | 92 | 1005.0 |
| 20260506062417 | 48 | 54 | 3.0 | 8.0 | 0.03 | 0.40 | 0.34 | 92 | 1004.9 |
| 20260506061917 | 48 | 34 | 3.0 | 8.0 | 0.04 | 0.40 | 0.34 | 92 | 1004.9 |
| 20260506061624 | 48 | 39 | 3.0 | 6.0 | 0.02 | 0.39 | 0.32 | 92 | 1004.8 |
| 20260506061417 | 48 | 24 | 3.0 | 6.0 | 0.03 | 0.39 | 0.33 | 92 | 1004.9 |
| 20260506060625 | 48 | 342 | 3.0 | 8.0 | 0.03 | 0.39 | 0.32 | 92 | 1004.7 |
| 20260506060417 | 48 | 9 | 3.0 | 8.0 | 0.02 | 0.39 | 0.32 | 92 | 1004.7 |
| 20260506050917 | 49 | 5 | 2.0 | 6.0 | 0.03 | 0.36 | 0.30 | 92 | 1004.6 |
| 20260506050625 | 49 | 29 | 2.0 | 4.0 | 0.02 | 0.35 | 0.29 | 92 | 1004.6 |
| 20260506050417 | 49 | 12 | 2.0 | 8.0 | 0.02 | 0.35 | 0.29 | 92 | 1004.6 |
| 20260506044625 | 49 | 12 | 3.0 | 8.0 | 0.03 | 0.35 | 0.28 | 92 | 1004.6 |
| 20260506044417 | 49 | 15 | 3.0 | 8.0 | 0.03 | 0.35 | 0.28 | 92 | 1004.6 |
| 20260506043917 | 49 | 25 | 3.0 | 8.0 | 0.04 | 0.35 | 0.28 | 92 | 1004.6 |
| 20260506043625 | 49 | 62 | 3.0 | 8.0 | 0.05 | 0.35 | 0.28 | 92 | 1004.6 |
| 20260506043417 | 49 | 27 | 3.0 | 8.0 | 0.05 | 0.35 | 0.28 | 92 | 1004.6 |
| 20260506042917 | 49 | 18 | 3.0 | 8.0 | 0.05 | 0.35 | 0.28 | 92 | 1004.6 |
| 20260506042624 | 49 | 26 | 3.0 | 8.0 | 0.05 | 0.34 | 0.28 | 92 | 1004.6 |
| 20260506042417 | 49 | 25 | 3.0 | 8.0 | 0.05 | 0.34 | 0.28 | 92 | 1004.6 |
| 20260506041917 | 49 | 25 | 2.0 | 6.0 | 0.06 | 0.34 | 0.28 | 92 | 1004.6 |
| 20260506041624 | 49 | 55 | 2.0 | 6.0 | 0.06 | 0.34 | 0.28 | 92 | 1004.6 |
| 20260506041417 | 49 | 3 | 2.0 | 8.0 | 0.06 | 0.34 | 0.28 | 92 | 1004.6 |
| 20260506040917 | 49 | 16 | 2.0 | 8.0 | 0.06 | 0.33 | 0.27 | 92 | 1004.6 |
| 20260506040625 | 49 | 5 | 2.0 | 5.0 | 0.06 | 0.33 | 0.27 | 92 | 1004.7 |
| 20260506040417 | 49 | 38 | 2.0 | 5.0 | 0.06 | 0.33 | 0.27 | 92 | 1004.7 |
| 20260506035917 | 49 | 21 | 2.0 | 6.0 | 0.06 | 0.33 | 0.26 | 92 | 1004.7 |
| 20260506035624 | 49 | 4 | 2.0 | 5.0 | 0.06 | 0.33 | 0.26 | 92 | 1004.6 |
| 20260506035417 | 49 | 359 | 2.0 | 6.0 | 0.06 | 0.33 | 0.26 | 92 | 1004.6 |
| 20260506034917 | 49 | 357 | 3.0 | 5.0 | 0.06 | 0.32 | 0.25 | 92 | 1004.7 |
| 20260506034624 | 48 | 355 | 3.0 | 5.0 | 0.06 | 0.32 | 0.25 | 92 | 1004.6 |
| 20260506034418 | 48 | 354 | 3.0 | 6.0 | 0.06 | 0.32 | 0.25 | 92 | 1004.6 |
| 20260506033917 | 48 | 351 | 2.0 | 6.0 | 0.06 | 0.31 | 0.24 | 92 | 1004.8 |
| 20260506033625 | 48 | 348 | 2.0 | 4.0 | 0.06 | 0.31 | 0.24 | 92 | 1004.7 |
| 20260506032624 | 48 | 359 | 2.0 | 5.0 | 0.06 | 0.30 | 0.23 | 92 | 1004.7 |
| 20260506032416 | 48 | 358 | 2.0 | 8.0 | 0.06 | 0.30 | 0.23 | 92 | 1004.7 |
| 20260506031625 | 48 | 344 | 2.0 | 8.0 | 0.06 | 0.29 | 0.22 | 92 | 1004.8 |
| 20260506031417 | 48 | 356 | 3.0 | 9.0 | 0.06 | 0.29 | 0.22 | 92 | 1004.8 |
| 20260506030917 | 48 | 1 | 2.0 | 9.0 | 0.06 | 0.28 | 0.21 | 92 | 1004.8 |
| 20260506030418 | 48 | 349 | 2.0 | 4.0 | 0.06 | 0.28 | 0.21 | 92 | 1004.8 |
| 20260506025918 | 48 | 358 | 2.0 | 8.0 | 0.06 | 0.28 | 0.20 | 92 | 1004.9 |
| 20260506025625 | 48 | 349 | 3.0 | 8.0 | 0.06 | 0.27 | 0.20 | 92 | 1004.9 |
| 20260506025417 | 48 | 7 | 2.0 | 8.0 | 0.06 | 0.27 | 0.20 | 92 | 1004.9 |
| 20260506024917 | 48 | 3 | 2.0 | 5.0 | 0.06 | 0.27 | 0.20 | 92 | 1005.0 |
| 20260506024624 | 48 | 12 | 2.0 | 5.0 | 0.07 | 0.26 | 0.19 | 92 | 1005.1 |
| 20260506024417 | 48 | 3 | 2.0 | 8.0 | 0.06 | 0.27 | 0.19 | 92 | 1005.0 |
| 20260506023917 | 48 | 9 | 3.0 | 8.0 | 0.08 | 0.27 | 0.19 | 92 | 1005.0 |
| 20260506023625 | 48 | 22 | 3.0 | 6.0 | 0.08 | 0.25 | 0.18 | 92 | 1005.1 |
| 20260506023419 | 48 | 8 | 3.0 | 8.0 | 0.08 | 0.27 | 0.18 | 92 | 1005.1 |
| 20260506022917 | 48 | 350 | 3.0 | 8.0 | 0.08 | 0.26 | 0.17 | 91 | 1005.0 |
| 20260506022626 | 48 | 348 | 3.0 | 7.0 | 0.09 | 0.24 | 0.17 | 91 | 1005.1 |
| 20260506022417 | 48 | 343 | 3.0 | 8.0 | 0.08 | 0.26 | 0.17 | 91 | 1005.1 |
| 20260506021917 | 48 | 7 | 2.0 | 8.0 | 0.08 | 0.26 | 0.17 | 91 | 1005.1 |
| 20260506021625 | 48 | 12 | 2.0 | 7.0 | 0.07 | 0.22 | 0.15 | 91 | 1005.2 |
| 20260506020917 | 48 | 9 | 2.0 | 7.0 | 0.07 | 0.24 | 0.15 | 91 | 1005.2 |
| 20260506020625 | 48 | 22 | 2.0 | 5.0 | 0.08 | 0.22 | 0.15 | 91 | 1005.2 |
| 20260506020417 | 48 | 2 | 2.0 | 8.0 | 0.08 | 0.24 | 0.15 | 91 | 1005.2 |
| 20260506015625 | 48 | 7 | 2.0 | 4.0 | 0.07 | 0.23 | 0.13 | 91 | 1005.3 |
| 20260506014917 | 48 | 11 | 3.0 | 8.0 | 0.07 | 0.22 | 0.13 | 91 | 1005.2 |
| 20260506014625 | 48 | 358 | 2.0 | 6.0 | 0.06 | 0.21 | 0.12 | 91 | 1005.2 |
| 20260506014417 | 48 | 7 | 2.0 | 6.0 | 0.06 | 0.21 | 0.12 | 91 | 1005.2 |
| 20260506013917 | 49 | 356 | 2.0 | 5.0 | 0.06 | 0.21 | 0.11 | 91 | 1005.3 |
| 20260506013417 | 49 | 14 | 2.0 | 5.0 | 0.06 | 0.21 | 0.10 | 91 | 1005.3 |
| 20260506012625 | 49 | 49 | 2.0 | 5.0 | 0.05 | 0.18 | 0.09 | 91 | 1005.4 |
| 20260506011917 | 49 | 8 | 2.0 | 9.0 | 0.05 | 0.20 | 0.09 | 91 | 1005.4 |
| 20260506011625 | 49 | 353 | 3.0 | 9.0 | 0.04 | 0.17 | 0.08 | 91 | 1005.5 |
| 20260506011417 | 49 | 17 | 3.0 | 9.0 | 0.04 | 0.20 | 0.08 | 91 | 1005.4 |
| 20260506010917 | 49 | 22 | 2.0 | 5.0 | 0.04 | 0.20 | 0.08 | 91 | 1005.4 |
| 20260506010417 | 49 | 12 | 3.0 | 6.0 | 0.04 | 0.19 | 0.07 | 91 | 1005.4 |
| 20260506005917 | 49 | 9 | 3.0 | 9.0 | 0.04 | 0.20 | 0.07 | 91 | 1005.5 |
| 20260506005417 | 49 | 4 | 3.0 | 9.0 | 0.04 | 0.19 | 0.06 | 91 | 1005.5 |
| 20260506004919 | 49 | 352 | 3.0 | 12.0 | 0.03 | 0.18 | 0.06 | 91 | 1005.5 |
| 20260506004625 | 49 | 356 | 3.0 | 12.0 | 0.03 | 0.18 | 0.06 | 91 | 1005.6 |
| 20260506004417 | 49 | 12 | 3.0 | 12.0 | 0.03 | 0.18 | 0.06 | 91 | 1005.6 |
| 20260506003917 | 49 | 19 | 3.0 | 9.0 | 0.02 | 0.17 | 0.05 | 90 | 1005.5 |
| 20260506003626 | 49 | 67 | 3.0 | 9.0 | 0.02 | 0.17 | 0.05 | 91 | 1005.6 |
| 20260506003417 | 49 | 19 | 3.0 | 9.0 | 0.02 | 0.17 | 0.05 | 91 | 1005.6 |
| 20260506002625 | 49 | 49 | 2.0 | 5.0 | 0.02 | 0.17 | 0.04 | 91 | 1005.7 |
| 20260506002417 | 49 | 34 | 3.0 | 9.0 | 0.02 | 0.17 | 0.04 | 91 | 1005.7 |
| 20260506001917 | 49 | 17 | 3.0 | 9.0 | 0.02 | 0.17 | 0.04 | 91 | 1005.6 |
| 20260506001625 | 49 | 29 | 3.0 | 7.0 | 0.02 | 0.17 | 0.04 | 91 | 1005.7 |
| 20260506001417 | 49 | 5 | 3.0 | 7.0 | 0.02 | 0.17 | 0.04 | 91 | 1005.7 |
| 20260506000917 | 49 | 16 | 2.0 | 6.0 | 0.02 | 0.17 | 0.04 | 91 | 1005.7 |
| 20260506000625 | 49 | 2 | 2.0 | 5.0 | 0.02 | 0.16 | 0.03 | 90 | 1005.8 |
| 20260506000417 | 49 | 28 | 2.0 | 7.0 | 0.02 | 0.16 | 0.03 | 90 | 1005.8 |
| 20260505235917 | 49 | 6 | 3.0 | 8.0 | 0.02 | 0.16 | 0.03 | 90 | 1005.8 |
| 20260505235625 | 49 | 351 | 3.0 | 8.0 | 0.01 | 0.15 | 0.02 | 90 | 1005.8 |
| 20260505235417 | 49 | 13 | 3.0 | 8.0 | 0.01 | 0.15 | 0.02 | 90 | 1005.8 |
| 20260505234917 | 49 | 28 | 2.0 | 6.0 | 0.01 | 0.15 | 0.02 | 90 | 1005.8 |
| 20260505234417 | 49 | 19 | 2.0 | 6.0 | 0.01 | 0.15 | 0.02 | 90 | 1005.9 |
| 20260505233917 | 49 | 18 | 2.0 | 6.0 | 0.02 | 0.15 | 0.02 | 90 | 1005.9 |
| 20260505233625 | 49 | 17 | 2.0 | 4.0 | 0.02 | 0.15 | 0.02 | 90 | 1005.9 |
| 20260505233418 | 49 | 23 | 2.0 | 5.0 | 0.02 | 0.15 | 0.02 | 90 | 1005.9 |
| 20260505232917 | 49 | 43 | 2.0 | 5.0 | 0.01 | 0.14 | 0.02 | 90 | 1006.0 |
| 20260505231917 | 49 | 56 | 2.0 | 7.0 | 0.01 | 0.14 | 0.02 | 90 | 1006.1 |
| 20260505231625 | 49 | 61 | 2.0 | 7.0 | 0.01 | 0.14 | 0.02 | 90 | 1006.0 |
| 20260505231419 | 49 | 18 | 2.0 | 9.0 | 0.01 | 0.14 | 0.02 | 90 | 1006.0 |
| 20260505230625 | 49 | 358 | 3.0 | 5.0 | 0.02 | 0.14 | 0.02 | 90 | 1006.0 |
| 20260505225625 | 50 | 12 | 2.0 | 4.0 | 0.02 | 0.14 | 0.02 | 90 | 1006.0 |
| 20260505225417 | 50 | 12 | 2.0 | 5.0 | 0.02 | 0.14 | 0.02 | 90 | 1006.0 |
| 20260505224917 | 50 | 11 | 2.0 | 5.0 | 0.02 | 0.14 | 0.02 | 90 | 1006.1 |
| 20260505224625 | 50 | 12 | 2.0 | 4.0 | 0.02 | 0.14 | 0.02 | 90 | 1006.2 |
| 20260505224417 | 50 | 13 | 2.0 | 9.0 | 0.02 | 0.14 | 0.02 | 90 | 1006.2 |
| 20260505223917 | 50 | 22 | 2.0 | 9.0 | 0.01 | 0.13 | 0.01 | 90 | 1006.3 |
| 20260505223625 | 50 | 358 | 2.0 | 5.0 | 0.01 | 0.13 | 0.01 | 90 | 1006.3 |
| 20260505222917 | 50 | 11 | 3.0 | 9.0 | 0.01 | 0.13 | 0.01 | 90 | 1006.4 |
| 20260505222625 | 50 | 1 | 3.0 | 9.0 | 0.01 | 0.13 | 0.01 | 90 | 1006.3 |
| 20260505222418 | 50 | 10 | 3.0 | 9.0 | 0.01 | 0.13 | 0.01 | 90 | 1006.3 |
| 20260505221625 | 50 | 353 | 3.0 | 6.0 | 0.00 | 0.13 | 0.00 | 90 | 1006.3 |
| 20260505221417 | 50 | 26 | 3.0 | 9.0 | 0.00 | 0.13 | 0.00 | 90 | 1006.3 |
| 20260505220917 | 50 | 24 | 3.0 | 9.0 | 0.00 | 0.13 | 0.00 | 90 | 1006.3 |
| 20260505220625 | 50 | 49 | 2.0 | 9.0 | 0.00 | 0.13 | 0.00 | 90 | 1006.3 |
| 20260505220418 | 50 | 14 | 2.0 | 9.0 | 0.00 | 0.13 | 0.00 | 90 | 1006.3 |
| 20260505215922 | 50 | 8 | 3.0 | 6.0 | 0.00 | 0.13 | 0.00 | 90 | 1006.4 |
| 20260505215625 | 50 | 17 | 2.0 | 6.0 | 0.00 | 0.13 | 0.13 | 90 | 1006.5 |
| 20260505215418 | 50 | 5 | 2.0 | 8.0 | 0.00 | 0.13 | 0.13 | 90 | 1006.5 |
| 20260505214917 | 50 | 16 | 2.0 | 8.0 | 0.00 | 0.13 | 0.13 | 90 | 1006.5 |
| 20260505214625 | 50 | 28 | 1.0 | 4.0 | 0.00 | 0.13 | 0.13 | 90 | 1006.5 |
| 20260505213917 | 50 | 27 | 3.0 | 9.0 | 0.01 | 0.13 | 0.13 | 90 | 1006.4 |
| 20260505213626 | 50 | 22 | 3.0 | 7.0 | 0.01 | 0.13 | 0.13 | 90 | 1006.5 |
| 20260505213417 | 50 | 29 | 3.0 | 7.0 | 0.01 | 0.13 | 0.13 | 90 | 1006.4 |
| 20260505212917 | 50 | 11 | 3.0 | 7.0 | 0.01 | 0.13 | 0.13 | 90 | 1006.5 |
| 20260505212417 | 50 | 357 | 3.0 | 6.0 | 0.01 | 0.13 | 0.13 | 90 | 1006.5 |
| 20260505211625 | 50 | 22 | 3.0 | 8.0 | 0.01 | 0.13 | 0.13 | 90 | 1006.6 |
| 20260505211417 | 50 | 29 | 3.0 | 9.0 | 0.01 | 0.13 | 0.13 | 90 | 1006.6 |
| 20260505210918 | 50 | 26 | 3.0 | 9.0 | 0.01 | 0.13 | 0.13 | 90 | 1006.6 |
| 20260505210625 | 50 | 63 | 3.0 | 9.0 | 0.02 | 0.13 | 0.13 | 90 | 1006.6 |
| 20260505210418 | 50 | 20 | 3.0 | 9.0 | 0.01 | 0.13 | 0.13 | 90 | 1006.6 |
| 20260505205625 | 51 | 47 | 3.0 | 9.0 | 0.02 | 0.13 | 0.13 | 90 | 1006.8 |
| 20260505205417 | 51 | 41 | 3.0 | 9.0 | 0.02 | 0.13 | 0.13 | 90 | 1006.8 |
| 20260505204917 | 51 | 26 | 3.0 | 12.0 | 0.02 | 0.13 | 0.13 | 90 | 1006.8 |
| 20260505204417 | 51 | 10 | 3.0 | 12.0 | 0.02 | 0.13 | 0.13 | 90 | 1006.7 |
| 20260505203917 | 51 | 4 | 2.0 | 5.0 | 0.02 | 0.13 | 0.12 | 90 | 1006.8 |
| 20260505203625 | 51 | 3 | 2.0 | 5.0 | 0.02 | 0.13 | 0.12 | 90 | 1006.7 |
| 20260505203417 | 51 | 4 | 3.0 | 6.0 | 0.02 | 0.13 | 0.12 | 90 | 1006.7 |
| 20260505202917 | 51 | 14 | 2.0 | 6.0 | 0.02 | 0.13 | 0.12 | 90 | 1006.8 |
| 20260505202625 | 51 | 2 | 2.0 | 5.0 | 0.02 | 0.13 | 0.12 | 90 | 1006.8 |
| 20260505201918 | 51 | 15 | 2.0 | 8.0 | 0.02 | 0.13 | 0.12 | 90 | 1006.7 |
| 20260505200917 | 51 | 42 | 2.0 | 8.0 | 0.02 | 0.13 | 0.12 | 90 | 1006.7 |
| 20260505200625 | 51 | 52 | 3.0 | 8.0 | 0.02 | 0.12 | 0.11 | 90 | 1006.7 |
| 20260505200417 | 51 | 32 | 2.0 | 8.0 | 0.02 | 0.12 | 0.11 | 90 | 1006.7 |
| 20260505195625 | 51 | 28 | 2.0 | 5.0 | 0.02 | 0.12 | 0.11 | 90 | 1006.7 |
| 20260505194917 | 51 | 60 | 2.0 | 9.0 | 0.01 | 0.11 | 0.10 | 90 | 1006.7 |
| 20260505194625 | 51 | 66 | 2.0 | 9.0 | 0.01 | 0.11 | 0.10 | 90 | 1006.7 |
| 20260505194417 | 51 | 53 | 2.0 | 9.0 | 0.01 | 0.11 | 0.10 | 90 | 1006.7 |
| 20260505193918 | 51 | 49 | 2.0 | 6.0 | 0.01 | 0.11 | 0.10 | 89 | 1006.7 |
| 20260505193625 | 51 | 48 | 1.0 | 6.0 | 0.01 | 0.11 | 0.10 | 89 | 1006.7 |
| 20260505193417 | 51 | 42 | 2.0 | 6.0 | 0.01 | 0.11 | 0.10 | 89 | 1006.7 |